Location: Centrum přírodních věd - Hvězdárna Jičín
(50.4344°N, 15.3406°E)
Time: 05:56:13
(UTC+01:00)

ISS - Pass Details

Date: 24 February 2020
Orbit: 415 x 423 km, 51.6° (Epoch: 27 February)

Event Time Altitude Azimuth Distance (km) Brightness Sun altitude
Exits shadow 05:09:44 - 188° (S) 1,613 -0.9 -17.3°
Reaches altitude 10° 05:10:09 10° 184° (S) 1,495 -1.1 -17.3°
Maximum altitude 05:12:26 17° 140° (SE) 1,135 -1.2 -16.9°
Drops below altitude 10° 05:14:44 10° 97° (E) 1,505 0.3 -16.5°
Sets 05:17:19 0° 77° (ENE) 2,375 1.8 -16.1°
